Tracking 22130 objects as of 21-Jan-2021
HD Live streaming from Space Station
objects crossing your sky now

STARLINK-1636

Track STARLINK-1636 now!
10-day predictions
STARLINK-1636 is classified as:


NORAD ID: 46153
Int'l Code: 2020-057AN
Perigee: 556.1 km
Apogee: 557.7 km
Inclination: 53.0 °
Period: 95.6 minutes
Semi major axis: 6927 km
RCS: Unknown
Launch date: August 18, 2020
Source: United States (US)
Launch site: AIR FORCE EASTERN TEST RANGE (AFETR)
aabbcc
Your satellite tracking list
Your tracking list is empty




NASA's NSSDC Master Catalog

Two Line Element Set (TLE):
1 46153U 20057AN  21021.47237607  .00000631  00000-0  62447-4 0  9992
2 46153  53.0020  65.8135 0001140  73.0324 287.0789 15.05577600 24007
Source of the keplerian elements: AFSPC